Погода в Найденовке

Россия / Ставропольский край     45˚20′02″N   41˚48′12″E
темп.,
°C
ветер,
м/с
пор.,
м/с
влажн.,
%
обл.,
%
осадки,
мм/ч
давл.,
гПа
погр.,
м
16 января, сб
сб1600:00−1˚зюз4689100 0.0 1014498
03:00−2˚юз379362 0.0 1015232
06:00−2˚ююз47920 0.0 1015200
09:00−1˚юз359547 0.2 1017303
12:00зсз449099 0.7 1017433
15:00з238487 0.8 1016381
18:00−1˚ссв1189100 0.0 101765
21:00−2˚всв2488100 0.0 1016169
17 января, вс
вс1700:00−2˚всв5984100 0.0 1014428
03:00−2˚всв71284100 0.0 1012616
06:00−1˚в91588100 0.2 1010847
09:00−2˚в81386100 0.4 1007840
12:00−1˚в91581100 0.1 1006781
15:00в81282100 0.1 1005738
18:00−1˚в71384100 0.0 1004615
21:00−1˚в61184100 0.0 1004593
18 января, пн
пн1800:00−1˚в5895100 1.8 1004488
03:00−3˚св3597100 6.3 1006277
06:00−4˚ссв3496100 1.7 1009225
09:00−6˚зсз4695100 2.4 1013377
12:00−6˚з6991100 0.2 1014636
15:00−6˚з6891100 0.4 1015644
18:00−7˚з4792100 0.2 1018544
21:00−8˚зюз4794100 0.3 1019372
19 января, вт
вт1900:00−8˚зюз3694100 0.0 1020250
03:00−9˚ююз229499 0.0 102049
06:00−8˚ююв2389100 0.0 101959
09:00−5˚юз1393100 0.4 1019171
12:00−5˚з5889100 0.3 1019540
15:00−5˚зсз368697 0.3 1018660
18:00−6˚юз3795100 0.4 1021513
21:00−9˚сз3596100 0.9 1024263
20 января, ср
ср2000:00−11˚з239699 0.1 102592
03:00−13˚юз229661 0.1 102643
06:00−13˚юз129629 0.0 102734
09:00−11˚юз239548 0.0 1028144
12:00−8˚з349182 0.0 1028436
15:00−8˚з359191 0.1 1028529
18:00−11˚з2298100 0.1 103039
21:00−12˚юз229894 0.1 103234